Notices

What's New in latest Release from April 7th, 2021:

- Updated Glossary, including Speed of Maximum Gust, and Total Hourly Precipitation

- Updated national and regional climate services offices contacts and prices information

- Addition of station inventory lists for 1981-2010, 1971-2000, and 1961-1990 Normals.

If you haven't already, please take our survey and provide feedback about our website: https://eccc.sondage-survey.ca/f/LanguageSelection.aspx?s=442ca660-fcf1-47c0-95a9-59707d6fd709

Hourly Data Report for November 20, 2019

SAINT JOHN A
NEW BRUNSWICK
Current Station Operator: NAVCAN

45°18'58.000" N
65°53'24.000" W
108.80 m
8104901
71609
YSJ

Download Data

Hourly Data (November 2019)
Hourly Data Report for November 20, 2019
TIME
LST
Temp Definition
°C
Dew Point Definition
°C
Rel Hum Definition
%
Precip. Amount Definition
mm

Wind Dir Definition
10's deg

Wind Spd Definition
km/h
Visibility Definition
km
Stn Press Definition
kPa
Hmdx Definition


Wind Chill Definition


Weather Definition


00:00 0.3 -0.2 97   2 13 6.4 99.80     Fog
01:00 0.2 -0.2 97   3 15 6.4 99.78     Fog
02:00 0.3 -0.3 96   4 13 6.4 99.79     Fog
03:00 0.4 -0.2 96   2 18 6.4 99.83     Fog
04:00 0.2 -0.4 96   3 19 6.4 99.82     Fog
05:00 0.0 -0.7 95   2 13 6.4 99.81   -4 Fog
06:00 0.2 -0.6 94   4 12 6.4 99.89     Fog
07:00 0.3 -0.4 95   1 13 6.4 99.91     Fog
08:00 0.3 -0.3 96   2 23 8.1 99.91     Fog
09:00 0.4 0.0 97   2 17 3.2 99.91     Fog
10:00 0.6 0.3 97   2 14 3.2 99.85     Fog
11:00 0.9 0.4 97   2 20 3.2 99.80     Fog
12:00 1.3 0.6 95   2 25 12.9 99.74     LegendNANA
13:00 1.9 0.6 92   3 19 24.1 99.79     LegendNANA
14:00 2.2 0.7 90   2 22 24.1 99.78     Cloudy
15:00 2.1 0.7 91   2 18 19.3 99.75     LegendNANA
16:00 2.0 0.7 91   2 17 24.1 99.76     LegendNANA
17:00 1.8 0.7 92   3 16 24.1 99.80     Cloudy
18:00 1.6 0.2 91   3 23 16.1 99.81     Drizzle
19:00 1.4 0.2 92   3 16 24.1 99.86     LegendNANA
20:00 1.3 0.1 92   2 21 24.1 99.83     Cloudy
21:00 1.4 0.3 93   1 22 24.1 99.84     LegendNANA
22:00 1.5 0.3 92   2 26 24.1 99.84     LegendNANA
23:00 1.2 0.1 92   35 22 16.1 99.87     Cloudy

Notes on Data Quality.

Legend

  • E = Estimated
  • M = Missing
  • NA = Not Available*
  • [empty] = Indicates an unobserved value
Date modified: